Location: ????????
(38.4362°N, 22.8767°E)
Time: 09:53:16
(UTC+00:00)

CZ-4 R/B - Visible Passes

Search period start: 24 July 2024 00:00
Search period end: 03 August 2024 00:00
Orbit: 679 x 747 km, 98.6° (Epoch: 23 July)

Date Brightness Start Highest point End Pass type
(mag) Time Alt. Az. Time Alt. Az. Time Alt. Az.
24 Jul 6.3 00:46:44 10° NE 00:49:33 15° E 00:52:21 10° SE visible
24 Jul 4.1 02:23:00 10° N 02:27:46 52° WNW 02:32:24 10° SSW visible
25 Jul 4.8 01:31:12 10° NNE 01:35:53 45° E 01:39:52 13° S visible
26 Jul 6.4 00:41:22 10° ENE 00:43:35 13° E 00:45:46 10° ESE visible
26 Jul 4.0 02:17:04 10° N 02:21:53 61° WNW 02:26:22 11° SSW visible
27 Jul 5.0 01:25:25 10° NNE 01:29:57 38° E 01:33:46 13° SSE visible
28 Jul 6.5 00:36:22 10° ENE 00:37:35 11° E 00:38:50 10° ESE visible
28 Jul 3.8 02:11:09 10° N 02:16:00 71° WNW 02:20:16 13° SSW visible
29 Jul 5.3 01:19:38 10° NNE 01:24:00 33° E 01:27:41 13° SSE visible
30 Jul 3.8 02:05:14 10° NNE 02:10:06 82° WNW 02:14:10 14° SSW visible
31 Jul 5.5 01:13:54 10° NE 01:18:03 28° E 01:21:33 13° SSE visible
31 Jul 4.9 02:51:46 10° N 02:55:51 28° WNW 02:59:52 10° SW visible
01 Aug 3.8 01:59:19 10° NNE 02:04:10 86° E 02:08:03 15° SSW visible
02 Aug 5.7 01:08:10 10° NE 01:12:04 24° E 01:15:26 12° SE visible
02 Aug 4.7 02:45:43 10° N 02:49:58 32° WNW 02:54:08 10° SW visible
